sat.trackr.live / text

‹ back to catalog

STARLINK-35387

NORAD 65909 · 2025-224AD

PAYLOAD ACTIVE UNKNOWN

§ Identity

Operator
Country
US
Launch date
2025-10-07
Launch site
AFETR
Launch vehicle
Mass (kg)
RCS (m²)

Purposes: comms

External: N2YO · Heavens-Above · Gunter

§ Orbital elements

Epoch: 2026-09-19T12:08:13.661088Z

Period
93.85 min
Inclination
53.1587°
Eccentricity
0.0000336
Mean motion
15.34399345 rev/d
Perigee alt
462.5 km
Apogee alt
462.9 km
Semi-major
6,840.8 km
B*
4.2641e-4
RAAN
190.0050°
Arg perigee
133.4313°
Mean anomaly
226.6718°
Rev number
5,451

§ Raw data

STARLINK-353871 65909U 25224AD  26262.50571367  .00014058  00000+0  42641-3 0  99932 65909  53.1587 190.0050 0000336 133.4313 226.6718 15.34399345 54518

JSON: /api/v1/satellites/65909 · /tle

For live sub-satellite position, see the globe view (requires WebGL).

§ Visibility from observer

Set your observer location to see the next 7 days of passes ≥ 10°. The values pass through the URL so the page stays shareable.

No JS? Fill the form by hand. The geolocation button needs JavaScript.